Погода в Белькачах

Россия / Республика Саха (Якутия)     59°11′13″N   131°54′09″E
темп.,
°C
ветер,
м/с
пор.,
м/с
влажн.,
%
обл.,
%
осадки,
мм/ч
давл.,
гПа
погр.,
м
20 января, чт
чт2000:00−40с0010099 0.0 10399
03:00−35юз0098100 0.0 103829
06:00−35з0099100 0.0 103816
09:00−36з0099100 0.0 103910
12:00−30юз1193100 0.0 1037125
15:00−29ююз0095100 0.0 103717
18:00−33ююв0099100 0.0 10399
21:00−35ю0010083 0.0 10399
21 января, пт
пт2100:00−37ююз0010050 0.0 10399
03:00−38з0010028 0.0 10409
06:00−39юз0010032 0.0 10408
09:00−39ююз0010034 0.0 10409
12:00−29юз129696 0.0 1038113
15:00−26ю009895 0.1 103631
18:00−30всв0010081 0.0 10379
21:00−31в0010095 0.1 10369
22 января, сб
сб2200:00−30ююз0010077 0.0 103512
03:00−27юз119881 0.0 103436
06:00−24ююз139896 0.1 103386
09:00−22ю26100100 0.3 1032152
12:00−16зюз3694100 0.2 1030298
15:00−14зюз3794100 0.4 1029467
18:00−16зюз2797100 0.1 1029194
21:00−17зюз2598100 0.3 1029125
23 января, вс
вс2300:00−17зюз2598100 0.3 1029125
03:00−18зюз2698100 0.5 1028149
06:00−19зюз12100100 0.2 102837
09:00−18зюз1599100 0.4 1027144
12:00−15з3792100 0.3 1026492
15:00−14з3894100 0.4 1026696
18:00−14з3995100 0.3 1025668
21:00−15з3994100 0.6 1025582
24 января, пн
пн2400:00−15зюз4995100 0.4 1023669
03:00−15з3995100 0.9 1023783
06:00−15зсз3894100 0.4 1024795
09:00−17з3896100 0.5 1025336
12:00−16зсз3889100 0.1 1025731
15:00−16з2692100 0.1 1024420
18:00−20ююв00100100 0.1 102410
21:00−18ююв1199100 0.4 102224